Voltar ao catálogo

STARLINK-35581

AtivoComunicaçõesVLEO
NORAD 66479·PAYLOAD·🇺🇸 United States

Lançado Nov 15, 2025 de Cape Canaveral Space Force Station

Loading…

Próximas Passagens (próximas 24 horas)

TLE

AtualizadoSource: CelesTrak SupGP

Época: Sep 15, 2026, 02:38 UTC

1 66479C 25262Z   26258.11020833  .00035048  00000+0  12692-2 0  2589
2 66479  43.0027 306.0280 0001544 264.1317 337.3663 15.27566813    13

Acompanhe STARLINK-35581 em tempo real com AllMySat

Download on the App Store